Wetterdaten: Mittwoch, 01.08.2018
Datum Zeit Temp. A. Aussen2m Boden Feuchte A. Feuchte 2 Luftdruck Regen Wind Richtung Richtung Sonnenschein
01.08.2018 00:00 22,7 C 23,0 C 10,8 C 49 % 56 % 1016,6 hPa 0,0 l/m 15,7 km/h (3 Bft) N 0 0 min
01.08.2018 00:05 22,7 C 23,0 C 10,8 C 49 % 56 % 1017,6 hPa 0,0 l/m 10,9 km/h (2 Bft) NO 45 0 min
01.08.2018 00:10 22,7 C 23,0 C 10,8 C 49 % 56 % 1017,6 hPa 0,0 l/m 10,9 km/h (2 Bft) NO 45 0 min
01.08.2018 00:15 22,6 C 22,9 C 10,8 C 49 % 56 % 1017,6 hPa 0,0 l/m 13,3 km/h (3 Bft) N-NO 15 0 min
01.08.2018 00:20 22,6 C 22,9 C 10,8 C 49 % 57 % 1017,6 hPa 0,0 l/m 8,5 km/h (2 Bft) NO 40 0 min
01.08.2018 00:25 22,5 C 22,8 C 10,8 C 50 % 57 % 1017,6 hPa 0,0 l/m 9,1 km/h (2 Bft) N 10 0 min
01.08.2018 00:30 22,4 C 22,7 C 10,8 C 50 % 57 % 1017,6 hPa 0,0 l/m 6,7 km/h (2 Bft) NW 325 0 min
01.08.2018 00:35 22,4 C 22,7 C 10,8 C 50 % 57 % 1017,6 hPa 0,0 l/m 15,1 km/h (3 Bft) N-NO 25 0 min
01.08.2018 00:40 22,3 C 22,6 C 10,8 C 50 % 57 % 1017,6 hPa 0,0 l/m 12,7 km/h (3 Bft) NO 40 0 min
01.08.2018 00:45 22,3 C 22,6 C 10,8 C 50 % 57 % 1017,6 hPa 0,0 l/m 14,5 km/h (3 Bft) NO 50 0 min
01.08.2018 00:50 22,3 C 22,6 C 10,8 C 50 % 58 % 1017,6 hPa 0,0 l/m 14,5 km/h (3 Bft) N-NO 30 0 min
01.08.2018 00:55 22,3 C 22,6 C 10,8 C 50 % 57 % 1017,6 hPa 0,0 l/m 17,6 km/h (3 Bft) N 0 0 min
01.08.2018 01:00 22,1 C 22,5 C 10,8 C 50 % 58 % 1017,6 hPa 0,0 l/m 9,1 km/h (2 Bft) N-NO 15 0 min
01.08.2018 01:05 22,1 C 22,4 C 10,8 C 51 % 58 % 1017,6 hPa 0,0 l/m 9,7 km/h (2 Bft) N 10 0 min
01.08.2018 01:10 22,1 C 22,4 C 10,8 C 51 % 58 % 1017,6 hPa 0,0 l/m 15,7 km/h (3 Bft) N-NO 25 0 min
01.08.2018 01:15 22,1 C 22,4 C 10,8 C 51 % 59 % 1017,6 hPa 0,0 l/m 19,4 km/h (3 Bft) N-NO 15 0 min
01.08.2018 01:20 22,0 C 22,3 C 10,8 C 51 % 59 % 1017,6 hPa 0,0 l/m 11,5 km/h (2 Bft) N-NO 30 0 min
01.08.2018 01:25 21,9 C 22,2 C 10,8 C 51 % 59 % 1017,6 hPa 0,0 l/m 16,3 km/h (3 Bft) N 10 0 min
01.08.2018 01:30 21,8 C 22,2 C 10,8 C 52 % 59 % 1017,6 hPa 0,0 l/m 15,1 km/h (3 Bft) N 5 0 min
01.08.2018 01:35 21,8 C 22,2 C 10,8 C 52 % 59 % 1017,6 hPa 0,0 l/m 15,7 km/h (3 Bft) N 355 0 min
01.08.2018 01:40 21,7 C 22,1 C 10,8 C 52 % 59 % 1017,6 hPa 0,0 l/m 10,3 km/h (2 Bft) N-NO 20 0 min
01.08.2018 01:45 21,6 C 22,0 C 10,8 C 53 % 60 % 1017,6 hPa 0,0 l/m 10,9 km/h (2 Bft) NO 35 0 min
01.08.2018 01:50 21,6 C 22,0 C 10,8 C 52 % 60 % 1017,6 hPa 0,0 l/m 15,7 km/h (3 Bft) NO 40 0 min
01.08.2018 01:55 21,5 C 21,9 C 10,8 C 53 % 60 % 1017,6 hPa 0,0 l/m 15,1 km/h (3 Bft) NO 50 0 min
01.08.2018 02:00 21,5 C 21,8 C 10,8 C 53 % 60 % 1017,6 hPa 0,0 l/m 15,1 km/h (3 Bft) N-NO 20 0 min
01.08.2018 02:05 21,4 C 21,8 C 10,8 C 53 % 60 % 1017,6 hPa 0,0 l/m 18,8 km/h (3 Bft) NO 45 0 min
01.08.2018 02:10 21,4 C 21,7 C 10,8 C 53 % 60 % 1017,6 hPa 0,0 l/m 17,6 km/h (3 Bft) NO 35 0 min
01.08.2018 02:15 21,3 C 21,7 C 10,8 C 53 % 60 % 1017,6 hPa 0,0 l/m 16,3 km/h (3 Bft) N-NO 30 0 min
01.08.2018 02:20 21,2 C 21,6 C 10,8 C 53 % 61 % 1016,6 hPa 0,0 l/m 8,5 km/h (2 Bft) N-NO 25 0 min
01.08.2018 02:25 21,2 C 21,5 C 10,8 C 54 % 61 % 1016,6 hPa 0,0 l/m 12,7 km/h (3 Bft) N 5 0 min
01.08.2018 02:30 21,1 C 21,5 C 10,8 C 54 % 61 % 1016,6 hPa 0,0 l/m 15,1 km/h (3 Bft) N-NW 335 0 min
01.08.2018 02:35 21,1 C 21,4 C 10,8 C 54 % 61 % 1017,7 hPa 0,0 l/m 8,5 km/h (2 Bft) N 5 0 min
01.08.2018 02:40 21,1 C 21,4 C 10,8 C 54 % 61 % 1017,7 hPa 0,0 l/m 8,5 km/h (2 Bft) N 0 0 min
01.08.2018 02:45 21,0 C 21,3 C 10,8 C 54 % 61 % 1017,7 hPa 0,0 l/m 7,9 km/h (2 Bft) N-NO 25 0 min
01.08.2018 02:50 20,9 C 21,3 C 10,8 C 55 % 61 % 1017,7 hPa 0,0 l/m 10,9 km/h (2 Bft) NO 35 0 min
01.08.2018 02:55 21,0 C 21,2 C 10,8 C 55 % 62 % 1017,7 hPa 0,0 l/m 16,3 km/h (3 Bft) O-SO 105 0 min
01.08.2018 03:00 20,9 C 21,2 C 10,8 C 55 % 62 % 1017,7 hPa 0,0 l/m 14,5 km/h (3 Bft) NO 40 0 min
01.08.2018 03:05 20,9 C 21,2 C 10,8 C 55 % 62 % 1017,7 hPa 0,0 l/m 14,5 km/h (3 Bft) N-NO 25 0 min
01.08.2018 03:10 20,8 C 21,1 C 10,8 C 55 % 62 % 1017,7 hPa 0,0 l/m 8,5 km/h (2 Bft) N-NO 30 0 min
01.08.2018 03:15 20,8 C 21,1 C 10,8 C 55 % 62 % 1017,7 hPa 0,0 l/m 12,1 km/h (2 Bft) N-NO 25 0 min
01.08.2018 03:20 20,8 C 21,0 C 10,8 C 55 % 63 % 1017,7 hPa 0,0 l/m 9,1 km/h (2 Bft) N-NO 25 0 min
01.08.2018 03:25 20,8 C 21,0 C 10,8 C 56 % 63 % 1017,7 hPa 0,0 l/m 9,1 km/h (2 Bft) N 350 0 min
01.08.2018 03:30 20,7 C 21,0 C 10,8 C 56 % 63 % 1017,7 hPa 0,0 l/m 9,7 km/h (2 Bft) N 10 0 min
01.08.2018 03:35 20,7 C 21,0 C 10,8 C 56 % 63 % 1017,7 hPa 0,0 l/m 9,1 km/h (2 Bft) W-NW 285 0 min
01.08.2018 03:40 20,6 C 20,9 C 10,8 C 56 % 63 % 1017,7 hPa 0,0 l/m 11,5 km/h (2 Bft) NO 50 0 min
01.08.2018 03:45 20,7 C 20,9 C 10,8 C 56 % 64 % 1017,7 hPa 0,0 l/m 12,7 km/h (3 Bft) O-NO 65 0 min
01.08.2018 03:50 20,6 C 20,9 C 10,8 C 56 % 64 % 1017,7 hPa 0,0 l/m 15,1 km/h (3 Bft) NO 40 0 min
01.08.2018 03:55 20,6 C 20,8 C 10,8 C 56 % 64 % 1017,7 hPa 0,0 l/m 7,9 km/h (2 Bft) N 10 0 min
01.08.2018 04:00 20,5 C 20,8 C 10,8 C 57 % 64 % 1017,7 hPa 0,0 l/m 10,3 km/h (2 Bft) N-NO 15 0 min
01.08.2018 04:05 20,5 C 20,7 C 10,8 C 57 % 64 % 1017,7 hPa 0,0 l/m 9,7 km/h (2 Bft) N 5 0 min
01.08.2018 04:10 20,4 C 20,6 C 10,8 C 57 % 64 % 1017,7 hPa 0,0 l/m 7,3 km/h (2 Bft) N 350 0 min
01.08.2018 04:15 20,4 C 20,6 C 10,8 C 57 % 64 % 1017,7 hPa 0,0 l/m 7,3 km/h (2 Bft) N-NO 30 0 min
01.08.2018 04:20 20,3 C 20,6 C 10,8 C 57 % 64 % 1017,7 hPa 0,0 l/m 4,8 km/h (1 Bft) N 0 0 min
01.08.2018 04:25 20,2 C 20,5 C 10,8 C 58 % 64 % 1017,7 hPa 0,0 l/m 6,7 km/h (2 Bft) N 5 0 min
01.08.2018 04:30 20,1 C 20,4 C 10,8 C 58 % 65 % 1017,7 hPa 0,0 l/m 4,2 km/h (1 Bft) N 10 0 min
01.08.2018 04:35 20,0 C 20,3 C 10,8 C 59 % 66 % 1017,7 hPa 0,0 l/m 3,6 km/h (1 Bft) N-NO 20 0 min
01.08.2018 04:40 19,8 C 20,2 C 10,8 C 60 % 66 % 1017,7 hPa 0,0 l/m 3,0 km/h (1 Bft) N 0 0 min
01.08.2018 04:45 19,8 C 20,1 C 10,8 C 60 % 67 % 1017,7 hPa 0,0 l/m 6,1 km/h (2 Bft) NW 305 0 min
01.08.2018 04:50 19,7 C 20,0 C 10,8 C 61 % 67 % 1017,7 hPa 0,0 l/m 6,1 km/h (2 Bft) N 0 0 min
01.08.2018 04:55 19,7 C 20,0 C 10,8 C 61 % 67 % 1017,7 hPa 0,0 l/m 4,8 km/h (1 Bft) W 275 0 min
01.08.2018 05:00 19,6 C 19,9 C 10,8 C 61 % 67 % 1017,7 hPa 0,0 l/m 4,8 km/h (1 Bft) N 5 0 min
01.08.2018 05:05 19,6 C 19,8 C 10,8 C 61 % 68 % 1017,7 hPa 0,0 l/m 5,4 km/h (2 Bft) NO 35 0 min
01.08.2018 05:10 19,6 C 19,8 C 10,8 C 61 % 68 % 1017,7 hPa 0,0 l/m 4,8 km/h (1 Bft) NO 35 0 min
01.08.2018 05:15 19,5 C 19,8 C 10,8 C 61 % 68 % 1017,7 hPa 0,0 l/m 4,2 km/h (1 Bft) N 0 0 min
01.08.2018 05:20 19,5 C 19,8 C 10,8 C 62 % 68 % 1017,7 hPa 0,0 l/m 6,1 km/h (2 Bft) N 10 0 min
01.08.2018 05:25 19,6 C 19,8 C 10,8 C 62 % 68 % 1017,7 hPa 0,0 l/m 5,4 km/h (2 Bft) N-NO 25 0 min
01.08.2018 05:30 19,5 C 19,8 C 10,8 C 62 % 68 % 1017,7 hPa 0,0 l/m 3,6 km/h (1 Bft) N 10 0 min
01.08.2018 05:35 19,5 C 19,8 C 10,8 C 62 % 68 % 1017,7 hPa 0,0 l/m 0,6 km/h (0 Bft) N-NW 340 0 min
01.08.2018 05:40 19,5 C 19,8 C 10,8 C 62 % 68 % 1017,7 hPa 0,0 l/m 0,0 km/h (0 Bft) N-NW 345 0 min
01.08.2018 05:45 19,3 C 19,7 C 10,8 C 62 % 68 % 1017,7 hPa 0,0 l/m 2,4 km/h (1 Bft) W 280 0 min
01.08.2018 05:50 19,2 C 19,5 C 10,8 C 63 % 68 % 1017,7 hPa 0,0 l/m 0,6 km/h (0 Bft) NO 50 0 min
01.08.2018 05:55 19,2 C 19,4 C 10,8 C 64 % 69 % 1017,7 hPa 0,0 l/m 3,6 km/h (1 Bft) N-NO 25 0 min
01.08.2018 06:00 19,1 C 19,4 C 10,8 C 64 % 70 % 1017,7 hPa 0,0 l/m 2,4 km/h (1 Bft) N 355 0 min
01.08.2018 06:05 19,1 C 19,4 C 10,8 C 64 % 70 % 1017,7 hPa 0,0 l/m 2,4 km/h (1 Bft) N-NW 345 0 min
01.08.2018 06:10 19,2 C 19,4 C 10,8 C 64 % 71 % 1017,7 hPa 0,0 l/m 3,6 km/h (1 Bft) NW 320 0 min
01.08.2018 06:15 19,2 C 19,4 C 10,8 C 64 % 71 % 1017,7 hPa 0,0 l/m 4,2 km/h (1 Bft) N-NW 340 0 min
01.08.2018 06:20 19,2 C 19,4 C 10,8 C 64 % 71 % 1017,7 hPa 0,0 l/m 3,6 km/h (1 Bft) O-NO 70 0 min
01.08.2018 06:25 19,3 C 19,4 C 10,8 C 64 % 71 % 1017,7 hPa 0,0 l/m 4,8 km/h (1 Bft) N-NO 20 0 min
01.08.2018 06:30 19,4 C 19,4 C 10,8 C 64 % 71 % 1017,7 hPa 0,0 l/m 4,2 km/h (1 Bft) NO 50 0 min
01.08.2018 06:35 19,4 C 19,4 C 10,8 C 64 % 71 % 1017,7 hPa 0,0 l/m 4,2 km/h (1 Bft) NO 55 0 min
01.08.2018 06:40 19,4 C 19,4 C 10,8 C 64 % 71 % 1017,7 hPa 0,0 l/m 1,8 km/h (1 Bft) N-NW 330 0 min
01.08.2018 06:45 19,4 C 19,5 C 10,8 C 64 % 71 % 1017,7 hPa 0,0 l/m 1,8 km/h (1 Bft) N-NO 20 0 min
01.08.2018 06:50 19,4 C 19,5 C 10,8 C 64 % 71 % 1017,7 hPa 0,0 l/m 3,0 km/h (1 Bft) N-NO 20 0 min
01.08.2018 06:55 19,5 C 19,5 C 10,8 C 64 % 71 % 1017,7 hPa 0,0 l/m 1,8 km/h (1 Bft) N 350 0 min
01.08.2018 07:00 19,9 C 19,7 C 10,8 C 62 % 71 % 1017,7 hPa 0,0 l/m 3,6 km/h (1 Bft) N-NO 15 0 min
01.08.2018 07:05 20,0 C 19,9 C 10,8 C 62 % 71 % 1017,7 hPa 0,0 l/m 0,0 km/h (0 Bft) N 5 0 min
01.08.2018 07:10 20,3 C 19,9 C 10,8 C 61 % 70 % 1017,7 hPa 0,0 l/m 0,6 km/h (0 Bft) N-NW 340 0 min
01.08.2018 07:15 20,4 C 19,9 C 10,8 C 61 % 71 % 1017,7 hPa 0,0 l/m 3,6 km/h (1 Bft) N 350 0 min
01.08.2018 07:20 20,8 C 20,1 C 10,8 C 59 % 70 % 1017,7 hPa 0,0 l/m 4,2 km/h (1 Bft) N-NW 335 0 min
01.08.2018 07:25 20,9 C 20,5 C 10,8 C 59 % 69 % 1017,7 hPa 0,0 l/m 9,7 km/h (2 Bft) N 350 0 min
01.08.2018 07:30 21,2 C 20,8 C 10,8 C 58 % 68 % 1017,7 hPa 0,0 l/m 3,6 km/h (1 Bft) O 85 0 min
01.08.2018 07:35 21,3 C 21,0 C 10,8 C 58 % 67 % 1017,7 hPa 0,0 l/m 3,6 km/h (1 Bft) O-NO 65 0 min
01.08.2018 07:40 21,4 C 21,2 C 10,8 C 57 % 67 % 1017,7 hPa 0,0 l/m 4,8 km/h (1 Bft) N-NO 30 0 min
01.08.2018 07:45 21,5 C 21,4 C 10,8 C 57 % 66 % 1017,7 hPa 0,0 l/m 1,8 km/h (1 Bft) O-NO 60 0 min
01.08.2018 07:50 21,8 C 21,7 C 10,8 C 56 % 65 % 1017,6 hPa 0,0 l/m 3,6 km/h (1 Bft) O-NO 65 0 min
01.08.2018 07:55 22,0 C 21,8 C 10,8 C 56 % 65 % 1017,6 hPa 0,0 l/m 4,8 km/h (1 Bft) O 100 0 min
01.08.2018 08:00 22,1 C 21,9 C 10,8 C 55 % 65 % 1017,6 hPa 0,0 l/m 5,4 km/h (2 Bft) SO 130 2 min
01.08.2018 08:05 22,2 C 22,2 C 10,8 C 54 % 64 % 1017,6 hPa 0,0 l/m 9,7 km/h (2 Bft) SO 130 3 min
01.08.2018 08:10 22,4 C 22,3 C 10,8 C 54 % 63 % 1017,6 hPa 0,0 l/m 6,7 km/h (2 Bft) S-SO 150 2 min
01.08.2018 08:15 22,8 C 22,6 C 10,8 C 53 % 62 % 1017,6 hPa 0,0 l/m 6,7 km/h (2 Bft) NO 40 3 min
01.08.2018 08:20 23,1 C 22,8 C 10,8 C 52 % 62 % 1017,6 hPa 0,0 l/m 6,7 km/h (2 Bft) O-NO 75 1 min
01.08.2018 08:25 23,0 C 22,9 C 10,8 C 52 % 61 % 1017,6 hPa 0,0 l/m 5,4 km/h (2 Bft) O-SO 115 0 min
01.08.2018 08:30 23,0 C 23,0 C 10,8 C 51 % 61 % 1017,6 hPa 0,0 l/m 7,3 km/h (2 Bft) SO 145 0 min
01.08.2018 08:35 22,9 C 23,0 C 10,8 C 51 % 61 % 1018,6 hPa 0,0 l/m 20,6 km/h (4 Bft) O 85 1 min
01.08.2018 08:40 23,3 C 23,0 C 10,8 C 51 % 60 % 1018,6 hPa 0,0 l/m 9,1 km/h (2 Bft) O-NO 70 5 min
01.08.2018 08:45 23,6 C 23,4 C 10,8 C 49 % 59 % 1018,6 hPa 0,0 l/m 11,5 km/h (2 Bft) O 90 5 min
01.08.2018 08:50 23,7 C 23,5 C 10,8 C 49 % 58 % 1018,6 hPa 0,0 l/m 14,5 km/h (3 Bft) NO 55 4 min
01.08.2018 08:55 23,9 C 23,5 C 10,8 C 48 % 58 % 1018,6 hPa 0,0 l/m 12,1 km/h (2 Bft) O-SO 120 5 min
01.08.2018 09:00 24,0 C 23,7 C 10,8 C 48 % 58 % 1018,6 hPa 0,0 l/m 13,3 km/h (3 Bft) O 100 5 min
01.08.2018 09:05 24,1 C 23,9 C 10,8 C 48 % 57 % 1017,6 hPa 0,0 l/m 16,9 km/h (3 Bft) O-NO 60 5 min
01.08.2018 09:10 24,6 C 24,1 C 10,8 C 47 % 58 % 1017,6 hPa 0,0 l/m 10,9 km/h (2 Bft) O 85 6 min
01.08.2018 09:15 24,8 C 24,4 C 10,8 C 46 % 57 % 1017,6 hPa 0,0 l/m 9,7 km/h (2 Bft) SW 230 4 min
01.08.2018 09:20 25,3 C 24,6 C 10,8 C 45 % 56 % 1017,6 hPa 0,0 l/m 7,3 km/h (2 Bft) NO 55 6 min
01.08.2018 09:25 25,4 C 25,0 C 10,8 C 45 % 55 % 1017,6 hPa 0,0 l/m 10,9 km/h (2 Bft) N 10 4 min
01.08.2018 09:30 25,3 C 25,0 C 10,8 C 44 % 54 % 1017,6 hPa 0,0 l/m 13,3 km/h (3 Bft) NO 40 6 min
01.08.2018 09:35 25,5 C 25,2 C 10,8 C 43 % 54 % 1017,6 hPa 0,0 l/m 14,5 km/h (3 Bft) N 10 5 min
01.08.2018 09:40 25,4 C 25,3 C 10,8 C 43 % 53 % 1017,6 hPa 0,0 l/m 15,1 km/h (3 Bft) N-NO 15 1 min
01.08.2018 09:45 25,6 C 25,7 C 10,8 C 43 % 51 % 1017,6 hPa 0,0 l/m 20,0 km/h (4 Bft) N-NO 15 4 min
01.08.2018 09:50 25,0 C 25,5 C 10,8 C 42 % 49 % 1018,6 hPa 0,0 l/m 20,6 km/h (4 Bft) N-NO 20 5 min
01.08.2018 09:55 25,1 C 25,4 C 10,8 C 43 % 50 % 1018,6 hPa 0,0 l/m 20,0 km/h (4 Bft) NO 50 2 min
01.08.2018 10:00 25,4 C 25,4 C 10,8 C 41 % 51 % 1018,6 hPa 0,0 l/m 11,5 km/h (2 Bft) NO 55 7 min
01.08.2018 10:05 25,3 C 25,4 C 10,8 C 41 % 49 % 1018,6 hPa 0,0 l/m 14,5 km/h (3 Bft) O-NO 75 0 min
01.08.2018 10:10 25,1 C 25,4 C 10,8 C 40 % 48 % 1018,6 hPa 0,0 l/m 15,1 km/h (3 Bft) N-NW 335 0 min
01.08.2018 10:15 25,2 C 25,5 C 10,8 C 41 % 48 % 1018,6 hPa 0,0 l/m 9,7 km/h (2 Bft) NO 35 0 min
01.08.2018 10:20 25,2 C 25,5 C 10,8 C 41 % 49 % 1018,6 hPa 0,0 l/m 16,9 km/h (3 Bft) NO 45 0 min
01.08.2018 10:25 25,3 C 25,4 C 10,8 C 41 % 48 % 1018,6 hPa 0,0 l/m 8,5 km/h (2 Bft) N-NO 20 3 min
01.08.2018 10:30 25,5 C 25,6 C 10,8 C 40 % 48 % 1018,6 hPa 0,0 l/m 10,9 km/h (2 Bft) N-NO 15 0 min
01.08.2018 10:35 25,3 C 25,7 C 10,8 C 41 % 48 % 1018,6 hPa 0,0 l/m 10,9 km/h (2 Bft) N-NW 345 2 min
01.08.2018 10:40 25,6 C 25,7 C 10,8 C 40 % 48 % 1018,6 hPa 0,0 l/m 9,7 km/h (2 Bft) NO 45 7 min
01.08.2018 10:45 25,8 C 25,9 C 10,8 C 40 % 48 % 1018,6 hPa 0,0 l/m 10,9 km/h (2 Bft) SO 135 3 min
01.08.2018 10:50 26,1 C 25,9 C 10,8 C 40 % 48 % 1018,6 hPa 0,0 l/m 12,7 km/h (3 Bft) NO 35 5 min
01.08.2018 10:55 26,1 C 26,1 C 10,8 C 40 % 47 % 1018,6 hPa 0,0 l/m 16,3 km/h (3 Bft) NO 40 7 min
01.08.2018 11:00 26,4 C 26,4 C 10,8 C 39 % 47 % 1018,6 hPa 0,0 l/m 14,5 km/h (3 Bft) NO 50 5 min
01.08.2018 11:05 26,6 C 26,7 C 10,8 C 38 % 45 % 1017,6 hPa 0,0 l/m 18,2 km/h (3 Bft) NO 35 5 min
01.08.2018 11:10 26,7 C 26,6 C 10,8 C 38 % 46 % 1017,6 hPa 0,0 l/m 18,8 km/h (3 Bft) N-NO 15 3 min
01.08.2018 11:15 26,8 C 26,9 C 10,8 C 38 % 45 % 1017,6 hPa 0,0 l/m 15,1 km/h (3 Bft) N-NO 20 5 min
01.08.2018 11:20 27,0 C 26,8 C 10,8 C 38 % 44 % 1017,6 hPa 0,0 l/m 20,6 km/h (4 Bft) N-NO 20 2 min
01.08.2018 11:25 26,6 C 26,8 C 10,8 C 38 % 45 % 1017,6 hPa 0,0 l/m 18,8 km/h (3 Bft) N-NW 345 4 min
01.08.2018 11:30 26,9 C 26,9 C 10,8 C 38 % 45 % 1017,6 hPa 0,0 l/m 13,9 km/h (3 Bft) N-NO 15 5 min
01.08.2018 11:35 26,7 C 27,0 C 10,8 C 38 % 46 % 1018,6 hPa 0,0 l/m 16,9 km/h (3 Bft) N 5 6 min
01.08.2018 11:40 27,2 C 27,3 C 10,8 C 38 % 45 % 1018,6 hPa 0,0 l/m 14,5 km/h (3 Bft) NO 40 3 min
01.08.2018 11:45 27,4 C 27,2 C 10,8 C 38 % 45 % 1018,6 hPa 0,0 l/m 9,7 km/h (2 Bft) NW 315 4 min
01.08.2018 11:50 27,3 C 27,2 C 10,8 C 37 % 45 % 1018,6 hPa 0,0 l/m 16,9 km/h (3 Bft) N 10 3 min
01.08.2018 11:55 27,2 C 27,2 C 10,8 C 37 % 45 % 1018,6 hPa 0,0 l/m 16,3 km/h (3 Bft) N-NO 20 6 min
01.08.2018 12:00 27,3 C 27,2 C 10,8 C 37 % 44 % 1018,6 hPa 0,0 l/m 17,6 km/h (3 Bft) NO 35 4 min
01.08.2018 12:05 27,7 C 27,4 C 10,8 C 37 % 45 % 1018,6 hPa 0,0 l/m 13,3 km/h (3 Bft) O-NO 70 4 min
01.08.2018 12:10 27,7 C 27,6 C 10,8 C 37 % 44 % 1018,6 hPa 0,0 l/m 15,7 km/h (3 Bft) N-NO 15 1 min
01.08.2018 12:15 27,4 C 27,8 C 10,8 C 37 % 44 % 1018,6 hPa 0,0 l/m 13,9 km/h (3 Bft) NO 40 5 min
01.08.2018 12:20 28,0 C 27,8 C 10,8 C 36 % 44 % 1018,6 hPa 0,0 l/m 9,7 km/h (2 Bft) O 95 5 min
01.08.2018 12:25 28,1 C 27,8 C 10,8 C 36 % 44 % 1018,6 hPa 0,0 l/m 10,3 km/h (2 Bft) N 0 5 min
01.08.2018 12:30 28,3 C 27,8 C 10,8 C 36 % 44 % 1018,6 hPa 0,0 l/m 11,5 km/h (2 Bft) S-SO 155 5 min
01.08.2018 12:35 27,8 C 27,8 C 10,8 C 36 % 44 % 1017,6 hPa 0,0 l/m 11,5 km/h (2 Bft) N-NO 15 5 min
01.08.2018 12:40 27,6 C 27,8 C 10,8 C 37 % 43 % 1017,6 hPa 0,0 l/m 10,3 km/h (2 Bft) W 280 6 min
01.08.2018 12:45 27,3 C 27,8 C 10,8 C 37 % 44 % 1017,6 hPa 0,0 l/m 16,3 km/h (3 Bft) N 350 4 min
01.08.2018 12:50 27,6 C 27,7 C 10,8 C 37 % 44 % 1018,6 hPa 0,0 l/m 7,3 km/h (2 Bft) S-SW 210 6 min
01.08.2018 12:55 27,7 C 27,7 C 10,8 C 37 % 44 % 1018,6 hPa 0,0 l/m 10,3 km/h (2 Bft) NO 35 4 min
01.08.2018 13:00 27,6 C 27,8 C 10,8 C 37 % 44 % 1018,6 hPa 0,0 l/m 14,5 km/h (3 Bft) S 175 6 min
01.08.2018 13:05 27,9 C 27,7 C 10,8 C 36 % 44 % 1018,6 hPa 0,0 l/m 6,1 km/h (2 Bft) NO 50 3 min
01.08.2018 13:10 27,9 C 27,8 C 10,8 C 36 % 43 % 1018,6 hPa 0,0 l/m 9,7 km/h (2 Bft) O-SO 115 5 min
01.08.2018 13:15 28,0 C 27,8 C 10,8 C 36 % 44 % 1018,6 hPa 0,0 l/m 10,3 km/h (2 Bft) N-NW 340 5 min
01.08.2018 13:20 27,7 C 27,8 C 10,8 C 36 % 43 % 1017,6 hPa 0,0 l/m 10,3 km/h (2 Bft) O-SO 115 5 min
01.08.2018 13:25 28,2 C 27,8 C 10,8 C 36 % 44 % 1017,6 hPa 0,0 l/m 12,1 km/h (2 Bft) O-NO 70 5 min
01.08.2018 13:30 28,3 C 27,8 C 10,8 C 36 % 44 % 1017,6 hPa 0,0 l/m 7,3 km/h (2 Bft) O 100 5 min
01.08.2018 13:35 28,4 C 28,0 C 10,8 C 36 % 43 % 1017,6 hPa 0,0 l/m 12,7 km/h (3 Bft) O 90 5 min
01.08.2018 13:40 28,4 C 28,0 C 10,8 C 36 % 44 % 1017,6 hPa 0,0 l/m 15,7 km/h (3 Bft) SO 140 4 min
01.08.2018 13:45 28,3 C 27,9 C 10,8 C 36 % 44 % 1017,6 hPa 0,0 l/m 12,7 km/h (3 Bft) O-NO 60 6 min
01.08.2018 13:50 28,1 C 28,0 C 10,8 C 36 % 43 % 1017,6 hPa 0,0 l/m 15,1 km/h (3 Bft) N-NO 30 5 min
01.08.2018 13:55 28,2 C 27,8 C 10,8 C 36 % 44 % 1017,6 hPa 0,0 l/m 13,3 km/h (3 Bft) O 90 5 min
01.08.2018 14:00 28,4 C 28,0 C 10,8 C 36 % 44 % 1017,6 hPa 0,0 l/m 9,1 km/h (2 Bft) O-SO 115 5 min
01.08.2018 14:05 28,4 C 28,1 C 10,8 C 36 % 43 % 1017,6 hPa 0,0 l/m 11,5 km/h (2 Bft) NW 320 5 min
01.08.2018 14:10 28,5 C 28,2 C 10,8 C 36 % 44 % 1017,6 hPa 0,0 l/m 12,1 km/h (2 Bft) S-SO 150 5 min
01.08.2018 14:15 28,2 C 28,2 C 10,8 C 36 % 44 % 1017,6 hPa 0,0 l/m 12,1 km/h (2 Bft) O 100 5 min
01.08.2018 14:20 28,4 C 28,4 C 10,8 C 36 % 43 % 1017,6 hPa 0,0 l/m 9,7 km/h (2 Bft) N-NW 335 5 min
01.08.2018 14:25 28,6 C 28,3 C 10,8 C 35 % 43 % 1017,6 hPa 0,0 l/m 6,7 km/h (2 Bft) W 260 5 min
01.08.2018 14:30 28,9 C 28,4 C 10,8 C 35 % 43 % 1017,6 hPa 0,0 l/m 5,4 km/h (2 Bft) N-NO 30 5 min
01.08.2018 14:35 29,1 C 28,6 C 10,8 C 35 % 42 % 1017,6 hPa 0,0 l/m 10,9 km/h (2 Bft) O-NO 65 5 min
01.08.2018 14:40 28,9 C 28,7 C 10,8 C 35 % 43 % 1017,6 hPa 0,0 l/m 15,7 km/h (3 Bft) O 90 3 min
01.08.2018 14:45 29,5 C 28,8 C 10,8 C 35 % 43 % 1017,6 hPa 0,0 l/m 9,7 km/h (2 Bft) N-NO 25 5 min
01.08.2018 14:50 29,1 C 28,9 C 10,8 C 35 % 42 % 1017,6 hPa 0,0 l/m 5,4 km/h (2 Bft) N 355 7 min
01.08.2018 14:55 29,3 C 28,8 C 10,8 C 35 % 42 % 1017,6 hPa 0,0 l/m 15,1 km/h (3 Bft) O-NO 70 5 min
01.08.2018 15:00 29,2 C 29,0 C 10,8 C 35 % 42 % 1017,6 hPa 0,0 l/m 11,5 km/h (2 Bft) NO 40 3 min
01.08.2018 15:05 29,1 C 28,9 C 10,8 C 35 % 41 % 1017,6 hPa 0,0 l/m 10,9 km/h (2 Bft) N 10 5 min
01.08.2018 15:10 29,1 C 29,0 C 10,8 C 35 % 42 % 1017,6 hPa 0,0 l/m 7,9 km/h (2 Bft) W-NW 285 7 min
01.08.2018 15:15 29,2 C 28,9 C 10,8 C 35 % 42 % 1017,6 hPa 0,0 l/m 12,7 km/h (3 Bft) O-NO 65 3 min
01.08.2018 15:20 29,0 C 29,1 C 10,8 C 35 % 41 % 1017,6 hPa 0,0 l/m 12,7 km/h (3 Bft) N-NO 25 7 min
01.08.2018 15:25 29,0 C 29,3 C 10,8 C 35 % 42 % 1017,6 hPa 0,0 l/m 6,7 km/h (2 Bft) N-NO 25 3 min
01.08.2018 15:30 29,3 C 29,4 C 10,8 C 35 % 42 % 1017,6 hPa 0,0 l/m 17,6 km/h (3 Bft) N 350 7 min
01.08.2018 15:35 28,7 C 29,3 C 10,8 C 35 % 41 % 1017,6 hPa 0,0 l/m 13,3 km/h (3 Bft) W-SW 255 3 min
01.08.2018 15:40 29,4 C 29,3 C 10,8 C 35 % 41 % 1017,6 hPa 0,0 l/m 13,3 km/h (3 Bft) N 350 6 min
01.08.2018 15:45 29,0 C 29,4 C 10,8 C 35 % 40 % 1017,6 hPa 0,0 l/m 16,9 km/h (3 Bft) N-NO 15 4 min
01.08.2018 15:50 29,1 C 29,3 C 10,8 C 35 % 41 % 1017,6 hPa 0,0 l/m 11,5 km/h (2 Bft) NO 40 6 min
01.08.2018 15:55 29,1 C 29,2 C 10,8 C 35 % 41 % 1017,6 hPa 0,0 l/m 7,9 km/h (2 Bft) N-NW 330 4 min
01.08.2018 16:00 29,5 C 29,3 C 10,8 C 34 % 41 % 1017,6 hPa 0,0 l/m 13,3 km/h (3 Bft) O-NO 60 6 min
01.08.2018 16:05 29,2 C 29,2 C 10,8 C 35 % 41 % 1017,6 hPa 0,0 l/m 11,5 km/h (2 Bft) NO 35 5 min
01.08.2018 16:10 29,3 C 29,4 C 10,8 C 35 % 41 % 1017,6 hPa 0,0 l/m 7,9 km/h (2 Bft) N-NO 15 5 min
01.08.2018 16:15 29,4 C 29,4 C 10,8 C 35 % 42 % 1017,6 hPa 0,0 l/m 12,7 km/h (3 Bft) O-NO 60 5 min
01.08.2018 16:20 29,3 C 29,6 C 10,8 C 35 % 41 % 1017,6 hPa 0,0 l/m 13,9 km/h (3 Bft) N 10 5 min
01.08.2018 16:25 29,8 C 29,5 C 10,8 C 35 % 41 % 1017,6 hPa 0,0 l/m 6,7 km/h (2 Bft) N-NO 20 5 min
01.08.2018 16:30 30,2 C 29,7 C 10,8 C 34 % 41 % 1017,6 hPa 0,0 l/m 4,8 km/h (1 Bft) W 270 5 min
01.08.2018 16:35 29,8 C 29,8 C 10,8 C 34 % 40 % 1016,5 hPa 0,0 l/m 10,9 km/h (2 Bft) N 5 5 min
01.08.2018 16:40 29,9 C 29,7 C 10,8 C 34 % 41 % 1016,5 hPa 0,0 l/m 9,1 km/h (2 Bft) N 0 5 min
01.08.2018 16:45 29,9 C 29,8 C 10,8 C 34 % 40 % 1016,5 hPa 0,0 l/m 9,7 km/h (2 Bft) N-NO 25 5 min
01.08.2018 16:50 29,9 C 29,8 C 10,8 C 34 % 40 % 1017,6 hPa 0,0 l/m 6,7 km/h (2 Bft) N-NW 330 5 min
01.08.2018 16:55 30,0 C 29,8 C 10,8 C 34 % 40 % 1017,6 hPa 0,0 l/m 10,9 km/h (2 Bft) N 10 6 min
01.08.2018 17:00 30,7 C 30,0 C 10,8 C 33 % 41 % 1017,5 hPa 0,0 l/m 7,9 km/h (2 Bft) SO 135 5 min
01.08.2018 17:05 30,7 C 30,1 C 10,8 C 33 % 41 % 1017,5 hPa 0,0 l/m 8,5 km/h (2 Bft) N-NW 335 5 min
01.08.2018 17:10 30,7 C 30,0 C 10,8 C 33 % 40 % 1017,5 hPa 0,0 l/m 4,8 km/h (1 Bft) W-NW 295 5 min
01.08.2018 17:15 30,5 C 30,2 C 10,8 C 33 % 40 % 1017,5 hPa 0,0 l/m 6,7 km/h (2 Bft) NW 305 5 min
01.08.2018 17:20 30,5 C 30,2 C 10,8 C 33 % 40 % 1016,5 hPa 0,0 l/m 5,4 km/h (2 Bft) W-NW 300 3 min
01.08.2018 17:25 30,3 C 30,1 C 10,8 C 33 % 40 % 1016,5 hPa 0,0 l/m 10,3 km/h (2 Bft) N-NO 15 7 min
01.08.2018 17:30 30,3 C 29,9 C 10,8 C 33 % 41 % 1016,5 hPa 0,0 l/m 8,5 km/h (2 Bft) O-SO 120 3 min
01.08.2018 17:35 30,8 C 30,1 C 10,8 C 33 % 41 % 1016,5 hPa 0,0 l/m 4,2 km/h (1 Bft) O-NO 70 7 min
01.08.2018 17:40 30,3 C 30,4 C 10,8 C 33 % 39 % 1016,5 hPa 0,0 l/m 10,9 km/h (2 Bft) N-NO 25 3 min
01.08.2018 17:45 30,2 C 30,4 C 10,8 C 33 % 39 % 1016,5 hPa 0,0 l/m 10,9 km/h (2 Bft) N 5 2 min
01.08.2018 17:46 30,5 C 30,2 C 10,8 C 33 % 40 % 1016,5 hPa 0,0 l/m 7,3 km/h (2 Bft) S-SO 150 0 min
01.08.2018 17:51 30,4 C 30,2 C 10,8 C 33 % 40 % 1016,5 hPa 0,0 l/m 7,3 km/h (2 Bft) O-NO 60 5 min
01.08.2018 17:56 30,0 C 30,2 C 10,8 C 33 % 40 % 1016,5 hPa 0,0 l/m 10,9 km/h (2 Bft) SO 140 0 min
01.08.2018 17:58 30,2 C 30,2 C 10,8 C 34 % 40 % 1016,5 hPa 0,0 l/m 10,9 km/h (2 Bft) O-NO 75 0 min
01.08.2018 18:00 30,2 C 30,1 C 10,8 C 34 % 40 % 1016,5 hPa 0,0 l/m 10,9 km/h (2 Bft) O-NO 75 0 min
01.08.2018 18:05 30,2 C 30,0 C 10,8 C 34 % 40 % 1016,5 hPa 0,0 l/m 4,8 km/h (1 Bft) N 355 1 min
01.08.2018 18:10 30,2 C 29,9 C 10,8 C 33 % 41 % 1016,5 hPa 0,0 l/m 10,3 km/h (2 Bft) N-NO 15 0 min
01.08.2018 18:15 29,8 C 30,0 C 10,8 C 34 % 40 % 1016,5 hPa 0,0 l/m 13,3 km/h (3 Bft) NO 35 0 min
01.08.2018 18:20 30,1 C 29,9 C 10,8 C 34 % 40 % 1016,5 hPa 0,0 l/m 7,3 km/h (2 Bft) S 185 4 min
01.08.2018 18:25 30,1 C 30,0 C 10,8 C 34 % 40 % 1016,5 hPa 0,0 l/m 7,3 km/h (2 Bft) NO 40 1 min
01.08.2018 18:30 30,1 C 30,0 C 10,8 C 33 % 40 % 1016,5 hPa 0,0 l/m 7,3 km/h (2 Bft) O-NO 65 2 min
01.08.2018 18:35 30,4 C 30,0 C 10,8 C 33 % 40 % 1016,5 hPa 0,0 l/m 2,4 km/h (1 Bft) S-SO 160 0 min
01.08.2018 18:40 30,5 C 29,9 C 10,8 C 33 % 41 % 1016,5 hPa 0,0 l/m 5,4 km/h (2 Bft) SO 135 4 min
01.08.2018 18:45 30,8 C 30,0 C 10,8 C 33 % 42 % 1016,5 hPa 0,0 l/m 7,9 km/h (2 Bft) O 85 4 min
01.08.2018 18:50 31,1 C 30,2 C 10,8 C 32 % 40 % 1016,5 hPa 0,0 l/m 8,5 km/h (2 Bft) N-NO 15 6 min
01.08.2018 18:55 31,0 C 30,2 C 10,8 C 33 % 40 % 1016,5 hPa 0,0 l/m 3,0 km/h (1 Bft) NW 310 0 min
01.08.2018 19:00 30,4 C 30,1 C 10,8 C 33 % 41 % 1016,5 hPa 0,0 l/m 9,7 km/h (2 Bft) S 185 0 min
01.08.2018 19:05 30,2 C 29,8 C 10,8 C 33 % 41 % 1016,5 hPa 0,0 l/m 8,5 km/h (2 Bft) O-NO 60 0 min
01.08.2018 19:10 30,1 C 29,8 C 10,8 C 33 % 42 % 1016,5 hPa 0,0 l/m 2,4 km/h (1 Bft) O-SO 120 0 min
01.08.2018 19:15 30,0 C 29,5 C 10,8 C 34 % 43 % 1016,6 hPa 0,0 l/m 6,7 km/h (2 Bft) O 90 0 min
01.08.2018 19:20 29,9 C 29,4 C 10,8 C 34 % 42 % 1016,6 hPa 0,0 l/m 6,7 km/h (2 Bft) N 0 0 min
01.08.2018 19:25 29,8 C 29,4 C 10,8 C 34 % 42 % 1016,6 hPa 0,0 l/m 6,1 km/h (2 Bft) O-NO 60 2 min
01.08.2018 19:30 29,5 C 29,5 C 10,8 C 34 % 41 % 1016,6 hPa 0,0 l/m 9,1 km/h (2 Bft) N-NO 20 4 min
01.08.2018 19:35 30,1 C 29,6 C 10,8 C 34 % 41 % 1016,6 hPa 0,0 l/m 6,1 km/h (2 Bft) O 95 5 min
01.08.2018 19:40 30,3 C 29,6 C 10,8 C 33 % 42 % 1016,6 hPa 0,0 l/m 10,9 km/h (2 Bft) O-NO 60 5 min
01.08.2018 19:45 30,3 C 29,6 C 10,8 C 33 % 41 % 1016,6 hPa 0,0 l/m 9,1 km/h (2 Bft) N-NO 15 6 min
01.08.2018 19:50 30,2 C 29,8 C 10,8 C 33 % 43 % 1016,5 hPa 0,0 l/m 8,5 km/h (2 Bft) W 260 4 min
01.08.2018 19:55 30,4 C 29,7 C 10,8 C 33 % 41 % 1016,5 hPa 0,0 l/m 7,3 km/h (2 Bft) O-NO 65 6 min
01.08.2018 20:00 30,2 C 29,7 C 10,8 C 33 % 41 % 1016,5 hPa 0,0 l/m 8,5 km/h (2 Bft) N 5 2 min
01.08.2018 20:05 29,6 C 29,8 C 10,8 C 34 % 41 % 1016,5 hPa 0,0 l/m 13,9 km/h (3 Bft) N-NO 15 0 min
01.08.2018 20:10 29,7 C 29,6 C 10,8 C 34 % 41 % 1016,6 hPa 0,0 l/m 9,7 km/h (2 Bft) O-NO 65 0 min
01.08.2018 20:15 29,5 C 29,8 C 10,8 C 34 % 41 % 1016,5 hPa 0,0 l/m 10,9 km/h (2 Bft) NO 50 0 min
01.08.2018 20:20 29,5 C 29,8 C 10,8 C 34 % 41 % 1016,5 hPa 0,0 l/m 10,3 km/h (2 Bft) O-NO 70 0 min
01.08.2018 20:25 29,5 C 29,6 C 10,8 C 34 % 41 % 1016,6 hPa 0,0 l/m 6,7 km/h (2 Bft) N-NO 25 0 min
01.08.2018 20:30 29,3 C 29,4 C 10,8 C 35 % 41 % 1016,6 hPa 0,0 l/m 7,9 km/h (2 Bft) O-SO 115 0 min
01.08.2018 20:35 29,2 C 29,4 C 10,8 C 35 % 41 % 1016,6 hPa 0,0 l/m 7,9 km/h (2 Bft) N 355 0 min
01.08.2018 20:40 28,9 C 29,3 C 10,8 C 35 % 41 % 1016,6 hPa 0,0 l/m 9,1 km/h (2 Bft) N-NO 25 0 min
01.08.2018 20:45 28,6 C 29,2 C 10,8 C 36 % 42 % 1016,6 hPa 0,0 l/m 8,5 km/h (2 Bft) N-NO 15 0 min
01.08.2018 20:50 28,4 C 28,9 C 10,8 C 36 % 42 % 1016,6 hPa 0,0 l/m 8,5 km/h (2 Bft) NO 50 0 min
01.08.2018 20:55 28,2 C 28,7 C 10,8 C 36 % 43 % 1016,6 hPa 0,0 l/m 5,4 km/h (2 Bft) W-NW 295 0 min
01.08.2018 21:00 27,9 C 28,4 C 10,8 C 37 % 43 % 1016,6 hPa 0,0 l/m 3,6 km/h (1 Bft) NO 40 0 min
01.08.2018 21:05 27,8 C 28,2 C 10,8 C 37 % 44 % 1016,6 hPa 0,0 l/m 2,4 km/h (1 Bft) S-SO 155 0 min
01.08.2018 21:10 27,5 C 27,9 C 10,8 C 38 % 45 % 1016,6 hPa 0,0 l/m 4,8 km/h (1 Bft) O 95 0 min
01.08.2018 21:15 27,3 C 27,7 C 10,8 C 38 % 45 % 1016,6 hPa 0,0 l/m 7,3 km/h (2 Bft) NO 55 0 min
01.08.2018 21:20 27,0 C 27,6 C 10,8 C 39 % 45 % 1017,6 hPa 0,0 l/m 9,1 km/h (2 Bft) N-NO 20 0 min
01.08.2018 21:25 26,9 C 27,4 C 10,8 C 39 % 45 % 1017,6 hPa 0,0 l/m 7,3 km/h (2 Bft) N-NO 25 0 min
01.08.2018 21:30 26,8 C 27,3 C 10,8 C 39 % 45 % 1017,6 hPa 0,0 l/m 9,1 km/h (2 Bft) N-NO 25 0 min
01.08.2018 21:35 26,7 C 27,1 C 10,8 C 39 % 46 % 1017,6 hPa 0,0 l/m 10,3 km/h (2 Bft) N 355 0 min
01.08.2018 21:40 26,5 C 27,0 C 10,8 C 40 % 46 % 1017,6 hPa 0,0 l/m 9,7 km/h (2 Bft) N-NO 15 0 min
01.08.2018 21:45 26,4 C 26,8 C 10,8 C 40 % 46 % 1017,6 hPa 0,0 l/m 14,5 km/h (3 Bft) O-NO 65 0 min
01.08.2018 21:50 26,3 C 26,7 C 10,8 C 40 % 47 % 1017,6 hPa 0,0 l/m 15,1 km/h (3 Bft) N 10 0 min
01.08.2018 21:55 26,3 C 26,7 C 10,8 C 40 % 47 % 1017,6 hPa 0,0 l/m 13,9 km/h (3 Bft) N-NO 15 0 min
01.08.2018 22:00 26,2 C 26,6 C 10,8 C 40 % 47 % 1017,6 hPa 0,0 l/m 12,7 km/h (3 Bft) NO 45 0 min
01.08.2018 22:05 26,1 C 26,5 C 10,8 C 40 % 47 % 1017,6 hPa 0,0 l/m 13,9 km/h (3 Bft) N-NO 25 0 min
01.08.2018 22:10 26,1 C 26,4 C 10,8 C 41 % 47 % 1017,6 hPa 0,0 l/m 13,9 km/h (3 Bft) N-NW 340 0 min
01.08.2018 22:15 25,9 C 26,4 C 10,8 C 41 % 48 % 1017,6 hPa 0,0 l/m 18,8 km/h (3 Bft) NO 35 0 min
01.08.2018 22:20 25,9 C 26,2 C 10,8 C 41 % 48 % 1017,6 hPa 0,0 l/m 12,7 km/h (3 Bft) NO 40 0 min
01.08.2018 22:25 25,8 C 26,2 C 10,8 C 41 % 48 % 1017,6 hPa 0,0 l/m 10,9 km/h (2 Bft) N-NO 20 0 min
01.08.2018 22:30 25,7 C 26,1 C 10,8 C 41 % 48 % 1017,6 hPa 0,0 l/m 13,3 km/h (3 Bft) N-NW 340 0 min
01.08.2018 22:35 25,6 C 26,0 C 10,8 C 41 % 48 % 1017,6 hPa 0,0 l/m 13,3 km/h (3 Bft) N-NO 25 0 min
01.08.2018 22:40 25,5 C 25,9 C 10,8 C 42 % 48 % 1017,6 hPa 0,0 l/m 14,5 km/h (3 Bft) NO 55 0 min
01.08.2018 22:45 25,5 C 25,8 C 10,8 C 42 % 48 % 1017,6 hPa 0,0 l/m 12,7 km/h (3 Bft) N 10 0 min
01.08.2018 22:50 25,3 C 25,8 C 10,8 C 42 % 49 % 1017,6 hPa 0,0 l/m 6,7 km/h (2 Bft) N-NO 15 0 min
01.08.2018 22:55 25,3 C 25,7 C 10,8 C 42 % 49 % 1017,6 hPa 0,0 l/m 9,7 km/h (2 Bft) N 350 0 min
01.08.2018 23:00 25,2 C 25,6 C 10,8 C 42 % 49 % 1017,6 hPa 0,0 l/m 9,7 km/h (2 Bft) N-NO 20 0 min
01.08.2018 23:05 25,1 C 25,5 C 10,8 C 43 % 49 % 1018,6 hPa 0,0 l/m 9,7 km/h (2 Bft) NO 35 0 min
01.08.2018 23:10 25,0 C 25,4 C 10,8 C 43 % 50 % 1018,6 hPa 0,0 l/m 11,5 km/h (2 Bft) N-NO 15 0 min
01.08.2018 23:15 25,0 C 25,3 C 10,8 C 43 % 51 % 1018,6 hPa 0,0 l/m 13,9 km/h (3 Bft) N-NO 20 0 min
01.08.2018 23:20 24,9 C 25,2 C 10,8 C 43 % 51 % 1018,6 hPa 0,0 l/m 10,9 km/h (2 Bft) N-NO 20 0 min
01.08.2018 23:25 24,8 C 25,2 C 10,8 C 43 % 51 % 1018,6 hPa 0,0 l/m 8,5 km/h (2 Bft) N 355 0 min
01.08.2018 23:30 24,7 C 25,0 C 10,8 C 43 % 51 % 1018,6 hPa 0,0 l/m 9,7 km/h (2 Bft) N-NO 30 0 min
01.08.2018 23:35 24,7 C 25,0 C 10,8 C 43 % 51 % 1018,6 hPa 0,0 l/m 9,7 km/h (2 Bft) N 5 0 min
01.08.2018 23:40 24,6 C 24,9 C 10,8 C 44 % 51 % 1018,6 hPa 0,0 l/m 8,5 km/h (2 Bft) NO 35 0 min
01.08.2018 23:45 24,5 C 24,8 C 10,8 C 44 % 52 % 1018,6 hPa 0,0 l/m 3,6 km/h (1 Bft) NO 35 0 min
01.08.2018 23:50 24,4 C 24,6 C 10,8 C 44 % 52 % 1018,6 hPa 0,0 l/m 2,4 km/h (1 Bft) O 100 0 min
01.08.2018 23:55 24,2 C 24,3 C 10,8 C 45 % 53 % 1018,6 hPa 0,0 l/m 0,6 km/h (0 Bft) O-SO 105 0 min
_ Min-Zeit 06:00 05:55 00:00 18:50 17:40 17:40 - 05:40 - - -
Minimum _ 19,1 C 19,4 C 10,8 C 32 % 39 % 1016,5 hPa - 0,0 km/h (0 Bft) - - -
_ Max-Zeit 18:50 17:40 00:00 05:55 06:10 08:35 00:00 08:35 - - 10:00
Maximum _ 31,1 C 30,4 C 10,8 C 64 % 71 % 1018,6 hPa 0,0 l/m 20,6 km/h
O (4 Bft)
- - 7 min
Durchschnitt _ 25,3 C 25,4 C 10,8 C 44 % 52 % 1017,6 hPa #0,0 l/m 9,9 km/h (2 Bft) N-NO - #9:28 h